+ View the NASA Portal
+ Center for Near-Earth Object Studies
IMPORTANT:
The SSD Announcement email list is now available. Major changes are coming in the near future, including possible hostname and/or URL changes. To be notified of such changes, subscribe to this email list.
Please visit
this page
for more details.
Don't show this message again
JPL Small-Body Database Browser
Search:
[
help
]
160792 (2000 TS50)
Classification:
Main-belt Asteroid
SPK-ID:
2160792
[
Ephemeris
|
Orbit Diagram
|
Orbital Elements
|
Mission Design
|
Physical Parameters
|
Discovery Circumstances
]
[ show orbit diagram ]
Orbital Elements at Epoch 2458600.5 (2019-Apr-27.0) TDB
Reference:
JPL 15
(heliocentric ecliptic J2000)
Element
Value
Uncertainty (1-sigma)
Units
e
.2167588234612084
4.8528e-08
a
2.378339923822296
1.2235e-08
au
q
1.862813760143755
1.1798e-07
au
i
7.607780085253422
5.6226e-06
deg
node
130.2389058442016
4.2055e-05
deg
peri
199.773617855618
4.4025e-05
deg
M
56.80947722728478
1.2682e-05
deg
t
p
2458389.088986508434
(2018-Sep-27.58898651)
4.6945e-05
TDB
period
1339.70542542522
3.67
1.0338e-05
2.83e-08
d
yr
n
.2687157886859617
2.0736e-09
deg/d
Q
2.893866087500837
1.4887e-08
au
Orbit Determination Parameters
# obs. used (total)
379
data-arc span
7532 days (20.62 yr)
first obs. used
1999-03-22
last obs. used
2019-11-04
planetary ephem.
DE431
SB-pert. ephem.
SB431-N16
condition code
0
norm. resid. RMS
.60211
source
ORB
producer
Otto Matic
solution date
2019-Dec-04 13:52:35
Additional Information
Earth MOID
= .852565 au
Jupiter MOID
= 2.46054 au
T_jup
= 3.496
[ hide covariance matrix ]
Orbital Elements at Epoch 2456865.5 (2014-Jul-27.0) TDB
Reference:
JPL 15
(heliocentric ecliptic J2000)
Element
Value
Uncertainty (1-sigma)
Units
e
.2182673963877035
4.8653e-08
q
1.858655159080095
1.1845e-07
au
t
p
2457049.285883305152
(2015-Jan-26.78588331)
4.5947e-05
TDB
node
130.3216710452063
4.2012e-05
deg
peri
199.6353335275239
4.3938e-05
deg
i
7.612907549954874
5.6264e-06
deg
Orbit Determination Parameters
# obs. used (total)
379
data-arc span
7532 days (20.62 yr)
first obs. used
1999-03-22
last obs. used
2019-11-04
planetary ephem.
DE431
SB-pert. ephem.
SB431-N16
condition code
0
norm. resid. RMS
.60211
source
ORB
producer
Otto Matic
solution date
2019-Dec-04 13:52:35
Additional Information
Jupiter MOID
= 2.46054 au
T_jup
= 3.496
Orbit Covariance (6×6)
e
q
tp
node
peri
i
e
2.367074404477129E-15
-5.745232760085912E-15
-2.151910758141383E-13
-1.624440919783444E-14
7.54205854476797E-15
-2.225734824243863E-15
q
-5.745232760085912E-15
1.403129079041053E-14
4.740620770250527E-13
3.718061548864116E-14
-3.518776237482879E-14
5.836437683884377E-15
tp
-2.151910758141383E-13
4.740620770250527E-13
2.111100266667314E-9
7.298892593207029E-12
6.188177397210651E-10
1.937877158966135E-13
node
-1.624440919783444E-14
3.718061548864116E-14
7.298892593207029E-12
1.765013270321518E-9
-1.745933826511463E-9
-4.107271256974376E-11
peri
7.54205854476797E-15
-3.518776237482879E-14
6.188177397210651E-10
-1.745933826511463E-9
1.930587169724697E-9
4.06953440787011E-11
i
-2.225734824243863E-15
5.836437683884377E-15
1.937877158966135E-13
-4.107271256974376E-11
4.06953440787011E-11
3.16558424154307E-11
[
Ephemeris
|
Orbit Diagram
|
Orbital Elements
|
Mission Design
|
Physical Parameters
|
Discovery Circumstances
]
Physical Parameter Table
Parameter
Symbol
Value
Units
Sigma
Reference
Notes
absolute magnitude
H
16.4
n/a
MPO454065
160792 (2000 TS50)
Discovered 2000-Oct-01 by LINEAR at Socorro
Reference:
20070828/Numbers.arc
Last Updated:
2007-08-30
Alternate Designations
2000 TS50
= 2002 CG194
[
Ephemeris
|
Orbit Diagram
|
Orbital Elements
|
Mission Design
|
Physical Parameters
|
Discovery Circumstances
]
2019-Dec-06 01:23 UT
(server date/time)
Site Manager:
Ryan S. Park
Webmaster
:
Alan B. Chamberlin